Francistown, Botswana

4:11 PM CAT on February 26, 2017 (GMT +0200)
Francistown

Weather History for FBFT - December, 2012

Change the Weather History Date:

Friday, December 14, 2012

  Actual Average Record
Temperature  
Mean Temperature 74 °F -  
Max Temperature 86 °F 85 °F 96 °F (1997)
Min Temperature 62 °F 65 °F 55 °F (2006)
Cooling Degree Days 9    
Growing Degree Days 24 (Base 50)    
Moisture  
Dew Point 59 °F    
Average Humidity 63    
Maximum Humidity 94    
Minimum Humidity 33    
Precipitation  
Precipitation 0.00 in - - ()
Sea Level Pressure  
Sea Level Pressure 30.02 in    
Wind  
Wind Speed 6 mph ()    
Max Wind Speed 21 mph    
Max Gust Speed -    
Visibility 6.2 miles    
Events      
Averages and records for this station are not official NWS values.
T = Trace of Precipitation, MM = Missing Value Source: Averaged Metar Reports

Daily Weather History Graph

Daily Weather History Graph

Search for Another Location

Airport or City:

Trip Planner

Search our weather history database for the weather conditions in past years. The results will help you decide how hot, cold, wet, or windy it might be!

Date:

Astronomy

Dec. 14, 2012 Rise Set
Actual Time 5:22 AM CAT 6:47 PM CAT
Civil Twilight 4:57 AM CAT 7:12 PM CAT
Nautical Twilight 4:28 AM CAT 7:41 PM CAT
Astronomical Twilight 3:57 AM CAT 8:12 PM CAT
Moon 6:22 AM CAT (12/14) 7:58 PM CAT (12/14)
Length of Visible Light 14h 14m
Length of Day
13h 24m
New Moon, 2% of the Moon is Illuminated
Dec 14
New Moon
Dec 20
First Quarter
Dec 28
Full
Jan 5
Last Quarter
Jan 11
New

Hourly Weather History & Observations

Time (CAT) Temp. Heat Index Dew Point Humidity Pressure Visibility Wind Dir Wind Speed Gust Speed Precip Events Conditions
12:00 AM 62.6 °F - 60.8 °F 94% 30.06 in - East 3.5 mph - N/A   Clear
1:00 AM 66.2 °F - 62.6 °F 88% 30.06 in - ENE 4.6 mph - N/A   Clear
2:00 AM 66.2 °F - 62.6 °F 88% 30.04 in - ENE 6.9 mph - N/A   Clear
3:00 AM 68.0 °F - 64.4 °F 88% 30.04 in - Variable 2.3 mph - N/A   Clear
4:00 AM 66.2 °F - 62.6 °F 88% 30.04 in - Variable 1.2 mph - N/A   Clear
5:00 AM 64.4 °F - 62.6 °F 94% 30.04 in - Calm Calm - N/A   Clear
6:00 AM 64.4 °F - 62.6 °F 94% 30.04 in - SE 4.6 mph - N/A   Clear
7:00 AM 64.4 °F - 62.6 °F 94% 30.06 in - SE 4.6 mph - N/A   Clear
8:00 AM 71.6 °F - 59.0 °F 64% 30.06 in - NE 11.5 mph - N/A   Clear
9:00 AM 75.2 °F - 59.0 °F 57% 30.06 in - East 8.1 mph - N/A   Clear
10:00 AM 77.0 °F - 57.2 °F 50% 30.06 in - East 8.1 mph - N/A   Clear
11:00 AM 78.8 °F - 57.2 °F 47% 30.04 in - East 13.8 mph - N/A   Clear
12:00 PM 82.4 °F 81.7 °F 55.4 °F 39% 30.01 in - East 20.7 mph - N/A   Clear
1:00 PM 84.2 °F 83.0 °F 55.4 °F 37% 30.01 in - East 11.5 mph - N/A   Clear
2:00 PM 84.2 °F 83.5 °F 57.2 °F 40% 29.98 in 6.2 mi East 13.8 mph - N/A   Partly Cloudy
3:00 PM 84.2 °F 83.0 °F 55.4 °F 37% 29.95 in 6.2 mi East 11.5 mph - N/A   Partly Cloudy
4:00 PM 86.0 °F 84.2 °F 53.6 °F 33% 29.95 in 6.2 mi SE 11.5 mph - N/A   Partly Cloudy
5:00 PM 84.2 °F 82.8 °F 53.6 °F 35% 29.95 in 6.2 mi SSE 10.4 mph - N/A   Partly Cloudy
6:00 PM 82.4 °F 81.7 °F 55.4 °F 39% 29.95 in 6.2 mi ESE 10.4 mph - N/A   Partly Cloudy
7:00 PM 80.6 °F 80.8 °F 57.2 °F 45% 29.98 in - SE 8.1 mph - N/A   Clear
8:00 PM 73.4 °F - 60.8 °F 65% 29.98 in - SE 6.9 mph - N/A   Clear
9:00 PM 71.6 °F - 60.8 °F 69% 29.98 in - SE 6.9 mph - N/A   Clear
10:00 PM 73.4 °F - 57.2 °F 57% 30.01 in - ESE 8.1 mph - N/A   Clear
11:00 PM 69.8 °F - 60.8 °F 73% 30.04 in - East 10.4 mph - N/A   Clear